period_start,C,m1,H,J0,J1,J2,J3,J4,J5,JA,JB,JC,JD,JJ,JK,JN,#
2015-04-15 00:03:23,0.12,2.17,0.00,24.60,27.17,29.86,4.72,26.79,1021.50,2032.00,2611.58,2725.28,2956.27,349.55,347.09,11.21,0000 0000 0000 0000 000000
2015-04-15 00:08:24,0.11,2.17,0.00,24.28,27.19,29.92,4.78,26.79,1021.50,2032.00,2610.55,2724.59,2955.46,350.13,348.10,11.24,0000 0000 0000 0000 000000
2015-04-15 00:13:26,0.12,2.17,0.00,23.77,27.20,30.00,4.72,26.69,1021.50,2032.00,2609.31,2723.74,2954.50,349.91,348.45,11.27,0000 0000 0000 0000 000000
2015-04-15 00:18:27,0.12,2.18,0.00,23.64,27.20,29.82,4.76,26.67,1021.50,2032.00,2607.96,2722.86,2953.46,349.90,348.86,11.29,0000 0000 0000 0000 000000
2015-04-15 00:23:28,0.11,2.18,0.00,24.00,27.18,29.55,4.73,26.73,1021.50,2032.00,2606.81,2722.02,2952.58,350.35,348.56,11.32,0000 0000 0000 0000 000000
2015-04-15 00:28:30,0.11,2.19,0.00,23.86,27.17,29.68,4.75,26.58,1021.51,2031.99,2605.77,2721.18,2951.77,349.88,348.15,11.35,0000 0000 0000 0000 000000
2015-04-15 00:33:31,0.11,2.19,0.00,23.87,27.17,29.76,4.78,26.73,1021.51,2031.99,2604.69,2720.54,2950.92,349.61,348.00,11.38,0000 0000 0000 0000 000000
2015-04-15 00:38:32,0.11,2.19,0.00,24.52,27.17,29.78,4.69,26.66,1021.52,2031.98,2603.58,2719.71,2950.00,349.56,347.13,11.41,0000 0000 0000 0000 000000
2015-04-15 00:43:33,0.12,2.20,0.00,24.58,27.18,29.84,4.72,26.75,1021.64,2031.99,2602.51,2718.83,2949.08,349.81,347.33,11.44,0000 0000 0000 0000 000000
2015-04-15 00:48:35,0.11,2.20,0.00,24.01,27.19,29.94,4.82,26.72,1021.84,2031.98,2601.34,2718.00,2948.16,349.81,348.10,11.47,0000 0000 0000 0000 000000
2015-04-15 00:53:36,0.13,2.20,0.00,23.73,27.19,29.88,4.77,26.78,1021.81,2031.98,2600.03,2717.10,2947.15,350.20,348.88,11.50,0000 0000 0000 0000 000000
2015-04-15 00:58:37,0.14,2.21,0.00,23.84,27.17,29.67,4.74,26.56,1021.72,2031.99,2598.81,2716.24,2946.23,349.87,348.35,11.53,0000 0000 0000 0000 000000
2015-04-15 01:03:39,0.13,2.21,0.00,24.06,27.16,29.54,4.77,26.60,1021.61,2031.99,2597.65,2715.36,2945.25,350.01,348.13,11.56,0000 0000 0000 0000 000000
2015-04-15 01:08:40,0.13,2.21,0.00,24.12,27.15,29.69,4.83,26.67,1021.57,2031.99,2596.46,2714.36,2944.20,350.32,348.48,11.59,0000 0000 0000 0000 000000
2015-04-15 01:13:41,0.12,2.22,0.00,24.70,27.15,29.76,4.77,26.63,1021.54,2031.99,2595.34,2713.56,2943.33,349.87,347.19,11.62,0000 0000 0000 0000 000000
2015-04-15 01:18:42,0.13,2.22,0.00,24.53,27.15,29.79,4.74,26.71,1021.69,2031.99,2593.99,2712.63,2942.30,349.81,347.49,11.65,0000 0000 0000 0000 000000
2015-04-15 01:23:43,0.15,2.23,0.00,24.10,27.15,29.78,4.79,26.77,1021.78,2031.99,2592.55,2711.62,2941.20,349.64,347.88,11.68,0000 0000 0000 0000 000000
2015-04-15 01:28:44,0.09,2.23,0.00,23.82,27.13,29.68,4.73,26.64,1021.76,2031.99,2591.33,2710.89,2940.24,350.11,348.35,11.70,0000 0000 0000 0000 000000
2015-04-15 01:33:46,0.11,2.23,0.00,23.99,27.12,29.46,4.74,26.82,1021.62,2031.99,2590.22,2710.07,2939.48,349.89,348.09,11.73,0000 0000 0000 0000 000000
2015-04-15 01:38:47,0.07,2.24,0.00,24.21,27.10,29.50,4.89,26.82,1021.66,2031.99,2589.48,2709.69,2938.98,350.32,348.29,11.76,0000 0000 0000 0000 000000
2015-04-15 01:43:49,0.08,2.24,0.00,24.57,27.09,29.62,4.65,26.57,1021.83,2032.00,2588.66,2709.02,2938.27,349.30,346.99,11.79,0000 0000 0000 0000 000000
2015-04-15 01:48:50,0.10,2.24,0.00,24.79,27.08,29.67,4.77,26.61,1021.96,2032.00,2587.78,2708.30,2937.68,350.21,347.62,11.82,0000 0000 0000 0000 000000
2015-04-15 01:53:51,0.06,2.24,0.00,24.35,27.07,29.71,4.73,26.66,1021.89,2032.00,2586.81,2707.90,2936.97,350.08,348.08,11.85,0000 0000 0000 0000 000000
2015-04-15 01:58:52,0.11,2.25,0.00,23.98,27.07,29.73,4.75,26.73,1021.89,2032.00,2585.85,2707.09,2936.17,349.53,347.79,11.88,0000 0000 0000 0000 000000
2015-04-15 02:03:54,0.06,2.25,0.00,23.95,27.05,29.62,4.74,26.68,1021.85,2032.01,2584.97,2706.78,2935.79,349.34,347.85,11.91,0000 0000 0000 0000 000000
2015-04-15 02:08:55,0.09,2.25,0.00,24.31,27.02,29.52,4.77,26.55,1021.86,2032.02,2584.09,2706.04,2935.05,350.38,348.33,11.94,0000 0000 0000 0000 000000
2015-04-15 02:13:56,0.10,2.25,0.00,24.57,27.02,29.56,4.72,26.66,1021.85,2032.03,2583.39,2705.60,2934.44,350.15,347.72,11.97,0000 0000 0000 0000 000000
2015-04-15 02:18:58,0.05,2.26,0.00,24.84,27.01,29.59,4.74,26.62,1021.84,2032.05,2582.57,2705.01,2933.91,349.59,346.75,12.00,0000 0000 0000 0000 000000
2015-04-15 02:23:59,0.13,2.26,0.00,24.47,27.00,29.64,4.77,26.68,1021.95,2032.05,2581.46,2704.29,2933.03,350.09,347.93,12.03,0000 0000 0000 0000 000000
2015-04-15 02:29:00,0.11,2.26,0.00,24.08,27.00,29.69,4.74,26.73,1021.99,2032.08,2580.40,2703.73,2932.17,349.87,348.12,12.06,0000 0000 0000 0000 000000
2015-04-15 02:34:01,0.10,2.27,0.00,23.95,26.97,29.64,4.81,26.73,1021.99,2032.13,2579.34,2703.04,2931.67,349.86,348.32,12.09,0000 0000 0000 0000 000000
2015-04-15 02:39:03,0.17,2.27,0.00,24.14,26.95,29.51,4.79,26.78,1021.99,2032.74,2578.65,2702.78,2931.05,349.80,347.84,12.11,0000 0000 0000 0000 000000
2015-04-15 02:44:04,0.10,2.27,0.00,24.11,26.94,29.45,4.82,26.85,1021.99,2032.87,2577.86,2702.06,2930.59,350.08,348.14,12.14,0000 0000 0000 0000 000000
2015-04-15 02:49:05,0.09,2.28,0.00,24.40,26.92,29.48,4.75,26.74,1022.00,2032.95,2577.03,2701.58,2929.99,350.16,348.04,12.17,0000 0000 0000 0000 000000
2015-04-15 02:54:07,0.08,2.28,0.00,24.85,26.92,29.52,4.79,26.77,1022.01,2032.97,2576.24,2701.02,2929.26,350.23,347.58,12.20,0000 0000 0000 0000 000000
2015-04-15 02:59:08,0.11,2.28,0.00,24.47,26.93,29.62,4.75,26.59,1022.04,2032.97,2575.34,2700.38,2928.65,349.69,347.48,12.23,0000 0000 0000 0000 000000
2015-04-15 03:04:09,0.06,2.29,0.00,24.06,26.93,29.76,4.79,26.63,1022.23,2032.96,2574.39,2699.91,2927.99,350.32,348.67,12.26,0000 0000 0000 0000 000000
2015-04-15 03:09:11,0.12,2.29,0.00,23.90,26.92,29.78,4.72,26.61,1022.27,2032.96,2573.41,2699.09,2927.23,349.73,348.28,12.29,0000 0000 0000 0000 000000
2015-04-15 03:14:12,0.10,2.29,0.00,23.86,26.91,29.66,4.76,26.64,1022.20,2032.97,2572.43,2698.71,2926.59,349.65,348.23,12.32,0000 0000 0000 0000 000000
2015-04-15 03:19:14,0.07,2.29,0.00,24.10,26.90,29.50,4.81,26.67,1022.36,2032.98,2571.54,2698.03,2926.01,350.20,348.58,12.35,0000 0000 0000 0000 000000
2015-04-15 03:24:15,0.11,2.30,0.00,24.06,26.89,29.47,4.80,26.73,1022.34,2032.99,2570.67,2697.45,2925.24,350.34,348.73,12.38,0000 0000 0000 0000 000000
2015-04-15 03:29:16,0.09,2.30,0.00,24.43,26.88,29.50,4.79,26.76,1022.24,2032.99,2569.66,2696.92,2924.54,350.73,348.62,12.41,0000 0000 0000 0000 000000
2015-04-15 03:34:18,0.11,2.30,0.00,24.81,26.89,29.53,4.73,26.72,1022.09,2032.99,2568.56,2696.08,2923.71,350.23,347.30,12.44,0000 0000 0000 0000 000000
2015-04-15 03:39:19,0.10,2.31,0.00,24.37,26.90,29.63,4.80,26.71,1022.09,2032.99,2567.57,2695.39,2922.93,349.82,347.41,12.47,0000 0000 0000 0000 000000
2015-04-15 03:44:20,0.09,2.31,0.00,24.05,26.90,29.75,4.78,26.74,1022.19,2032.99,2566.43,2694.79,2922.08,350.10,348.41,12.50,0000 0000 0000 0000 000000
2015-04-15 03:49:22,0.11,2.31,0.00,23.94,26.90,29.75,4.75,26.68,1022.31,2032.99,2565.36,2694.03,2921.33,349.55,348.08,12.52,0000 0000 0000 0000 000000
2015-04-15 03:54:23,0.11,2.32,0.00,23.91,26.89,29.65,4.78,26.77,1022.23,2032.99,2564.34,2693.36,2920.64,349.27,347.78,12.55,0000 0000 0000 0000 000000
2015-04-15 03:59:25,0.06,2.32,0.00,24.17,26.87,29.47,4.73,26.61,1022.18,2032.99,2563.34,2692.87,2919.94,349.82,348.04,12.58,0000 0000 0000 0000 000000
2015-04-15 04:04:26,0.12,2.32,0.00,24.33,26.87,29.48,4.79,26.68,1022.27,2032.99,2562.33,2692.06,2919.09,350.60,348.54,12.61,0000 0000 0000 0000 000000
2015-04-15 04:09:27,0.12,2.33,0.00,24.75,26.87,29.52,4.79,26.65,1022.38,2032.99,2561.37,2691.39,2918.35,350.26,347.58,12.64,0000 0000 0000 0000 000000
2015-04-15 04:14:29,0.10,2.33,0.00,24.53,26.88,29.59,4.76,26.68,1022.38,2032.99,2560.37,2690.71,2917.50,350.38,348.29,12.67,0000 0000 0000 0000 000000
2015-04-15 04:19:30,0.08,2.33,0.00,24.13,26.90,29.71,4.68,26.63,1022.36,2032.99,2559.26,2690.02,2916.83,349.44,347.77,12.70,0000 0000 0000 0000 000000
2015-04-15 04:24:31,0.09,2.33,0.00,23.97,26.89,29.75,4.75,26.64,1022.27,2032.99,2558.62,2689.55,2916.07,349.85,348.31,12.73,0000 0000 0000 0000 000000
2015-04-15 04:29:32,0.07,2.34,0.00,23.88,26.88,29.71,4.76,26.53,1022.08,2032.99,2557.75,2689.00,2915.53,349.87,348.43,12.76,0000 0000 0000 0000 000000
2015-04-15 04:34:33,0.10,2.34,0.00,24.19,26.87,29.58,4.73,26.75,1022.09,2032.99,2556.80,2688.29,2914.91,350.02,348.19,12.79,0000 0000 0000 0000 000000
2015-04-15 04:39:34,0.07,2.34,0.00,24.37,26.87,29.48,4.85,26.77,1022.38,2032.99,2555.97,2687.87,2914.12,350.56,348.61,12.82,0000 0000 0000 0000 000000
2015-04-15 04:44:36,0.11,2.34,0.00,24.66,26.87,29.53,4.75,26.66,1022.37,2032.99,2555.08,2687.08,2913.38,349.93,347.62,12.85,0000 0000 0000 0000 000000
2015-04-15 04:49:37,0.07,2.35,0.00,24.41,26.87,29.56,4.72,26.57,1022.41,2033.00,2554.13,2686.80,2912.79,349.90,348.14,12.88,0000 0000 0000 0000 000000
2015-04-15 04:54:38,0.09,2.35,0.00,24.03,26.87,29.66,4.80,26.57,1022.46,2033.00,2553.12,2686.03,2912.03,350.27,348.56,12.91,0000 0000 0000 0000 000000
2015-04-15 04:59:39,0.10,2.35,0.00,23.90,26.87,29.63,4.74,26.51,1022.43,2033.01,2552.20,2685.71,2911.51,349.11,347.79,12.93,0000 0000 0000 0000 000000
2015-04-15 05:04:40,0.07,2.36,0.00,23.93,26.85,29.59,4.72,26.53,1022.45,2033.00,2551.30,2685.02,2910.81,349.32,348.00,12.96,0000 0000 0000 0000 000000
2015-04-15 05:09:41,0.10,2.36,0.00,24.22,26.85,29.46,4.74,26.44,1022.48,2033.00,2550.52,2684.53,2910.05,349.63,347.85,12.99,0000 0000 0000 0000 000000
2015-04-15 05:14:43,0.04,2.36,0.00,24.39,26.83,29.46,4.75,26.58,1022.48,2033.02,2549.87,2684.01,2909.64,349.90,347.74,13.02,0000 0000 0000 0000 000000
2015-04-15 05:19:44,0.08,2.36,0.00,24.70,26.83,29.46,4.70,26.56,1022.48,2033.01,2549.06,2683.61,2909.02,349.70,347.58,13.05,0000 0000 0000 0000 000000
2015-04-15 05:24:45,0.09,2.36,0.00,24.30,26.84,29.52,4.78,26.54,1022.48,2033.02,2548.20,2683.02,2908.38,350.71,348.81,13.08,0000 0000 0000 0000 000000
2015-04-15 05:29:46,0.06,2.37,0.00,23.98,26.83,29.60,4.75,26.63,1022.48,2033.02,2547.36,2682.75,2907.98,350.17,348.59,13.11,0000 0000 0000 0000 000000
2015-04-15 05:34:48,0.09,2.37,0.00,23.81,26.82,29.47,4.78,26.48,1022.48,2033.03,2546.54,2682.05,2907.24,349.99,348.91,13.14,0000 0000 0000 0000 000000
2015-04-15 05:39:49,0.02,2.37,0.00,23.59,26.81,29.30,4.75,26.52,1022.48,2033.07,2545.91,2681.95,2906.98,350.32,349.33,13.17,0000 0000 0000 0000 000000
2015-04-15 05:44:50,0.13,2.37,0.00,23.61,26.80,29.29,4.80,26.61,1022.48,2033.15,2545.09,2681.18,2906.23,350.36,349.33,13.20,0000 0000 0000 0000 000000
2015-04-15 05:49:51,0.11,2.38,0.00,23.58,26.77,29.19,4.72,26.51,1022.48,2033.44,2544.46,2681.00,2905.99,349.31,348.35,13.23,0000 0000 0000 0000 000000
2015-04-15 05:54:52,0.13,2.38,0.00,23.47,26.77,29.29,4.79,26.49,1022.48,2033.63,2543.80,2680.41,2905.20,350.24,349.39,13.26,0000 0000 0000 0000 000000
2015-04-15 05:59:54,0.06,2.38,0.00,23.37,26.75,29.30,4.75,26.52,1022.48,2033.82,2542.97,2680.01,2904.85,350.02,349.50,13.29,0000 0000 0000 0000 000000
2015-04-15 06:04:55,0.11,2.39,0.00,23.35,26.75,29.34,4.83,26.48,1022.48,2033.87,2542.09,2679.59,2904.08,350.05,349.26,13.32,0000 0000 0000 0000 000000
2015-04-15 06:09:57,0.08,2.39,0.00,23.32,26.75,29.33,4.78,26.77,1022.48,2033.87,2541.23,2679.01,2903.67,350.17,349.38,13.34,0000 0000 0000 0000 000000
2015-04-15 06:14:58,0.09,2.39,0.00,23.23,26.75,29.30,4.77,26.77,1022.48,2033.89,2540.44,2678.49,2903.02,350.03,349.62,13.37,0000 0000 0000 0000 000000
2015-04-15 06:19:59,0.06,2.39,0.00,23.13,26.75,29.23,4.84,26.82,1022.49,2033.94,2539.79,2678.01,2902.43,350.15,349.67,13.40,0000 0000 0000 0000 000000
2015-04-15 06:25:00,0.06,2.40,0.00,22.97,26.75,29.22,4.89,26.73,1022.50,2033.96,2538.98,2677.66,2901.98,350.16,349.89,13.43,0000 0000 0000 0000 000000
2015-04-15 06:30:01,0.10,2.40,0.00,22.87,26.74,29.29,4.75,26.52,1022.53,2033.98,2538.11,2677.03,2901.29,349.25,349.19,13.46,0000 0000 0000 0000 000000
2015-04-15 06:35:03,0.06,2.40,0.00,22.82,26.73,29.30,4.79,26.58,1022.68,2033.97,2537.32,2676.75,2900.93,350.17,350.15,13.49,0000 0000 0000 0000 000000
2015-04-15 06:40:04,0.09,2.40,0.00,22.83,26.72,29.30,4.77,26.73,1022.87,2033.98,2536.60,2676.06,2900.22,349.38,349.40,13.52,0000 0000 0000 0000 000000
2015-04-15 06:45:05,0.03,2.41,0.00,22.90,26.72,29.34,4.92,26.49,1022.92,2033.98,2535.91,2675.94,2899.92,350.53,350.61,13.55,0000 0000 0000 0000 000000
2015-04-15 06:50:06,0.11,2.41,0.00,22.87,26.72,29.43,4.82,26.51,1022.84,2033.99,2535.07,2675.16,2899.13,350.09,350.12,13.58,0000 0000 0000 0000 000000
2015-04-15 06:55:08,0.06,2.41,0.00,22.90,26.72,29.48,4.83,26.52,1022.85,2033.99,2534.22,2674.94,2898.70,349.77,349.77,13.61,0000 0000 0000 0000 000000
2015-04-15 07:00:09,0.10,2.41,0.00,23.04,26.72,29.50,4.79,26.88,1022.82,2033.99,2533.43,2674.12,2898.03,349.74,349.65,13.64,0000 0000 0000 0000 000000
2015-04-15 07:05:11,0.07,2.41,0.00,23.22,26.72,29.52,4.82,26.57,1022.80,2033.98,2532.65,2673.87,2897.33,350.13,349.63,13.67,0000 0000 0000 0000 000000
2015-04-15 07:10:12,0.08,2.42,0.00,23.39,26.72,29.53,4.82,26.62,1022.88,2033.99,2531.82,2673.07,2896.83,350.33,349.66,13.70,0000 0000 0000 0000 000000
2015-04-15 07:15:14,0.07,2.42,0.00,23.55,26.74,29.52,4.77,26.70,1022.90,2033.99,2530.99,2672.76,2896.05,350.13,349.38,13.73,0000 0000 0000 0000 000000
2015-04-15 07:20:15,0.09,2.42,0.00,23.75,26.76,29.44,4.78,26.57,1022.95,2033.97,2530.09,2672.03,2895.45,349.88,348.92,13.75,0000 0000 0000 0000 000000
2015-04-15 07:25:17,0.10,2.43,0.00,23.89,26.78,29.45,4.77,26.43,1022.96,2033.96,2529.23,2671.45,2894.74,350.30,349.21,13.78,0000 0000 0000 0000 000000
2015-04-15 07:30:18,0.08,2.43,0.00,24.11,26.82,29.51,4.75,26.40,1022.96,2033.93,2528.40,2670.82,2893.95,349.87,348.53,13.81,0000 0000 0000 0000 000000
2015-04-15 07:35:19,0.00,2.43,0.00,24.23,26.86,29.58,4.74,26.43,1022.96,2033.42,2527.35,2669.98,2893.06,349.83,348.30,13.84,0000 0000 0000 0000 000000
2015-04-15 07:40:20,0.09,2.43,0.00,24.43,26.91,29.65,4.86,26.49,1022.96,2033.06,2526.30,2669.14,2892.14,350.63,348.69,13.87,0000 0000 0000 0000 000000
2015-04-15 07:45:21,0.10,2.43,0.00,24.58,26.96,29.74,4.89,26.41,1022.97,2033.02,2525.36,2668.46,2891.36,350.75,348.68,13.90,0000 0000 0000 0000 000000
2015-04-15 07:50:22,0.12,2.44,0.00,24.73,27.02,29.85,4.80,26.47,1022.98,2033.00,2524.34,2667.65,2890.45,350.53,348.34,13.93,0000 0000 0000 0000 000000
2015-04-15 07:55:24,0.11,2.44,0.00,24.87,27.08,29.93,4.75,26.39,1022.99,2032.96,2523.30,2666.77,2889.45,350.25,348.01,13.96,0000 0000 0000 0000 000000
2015-04-15 08:00:25,0.00,2.44,0.00,24.96,27.15,30.05,4.69,26.24,1023.16,2032.61,2522.22,2665.96,2888.48,349.88,347.63,13.99,0000 0000 0000 0000 000000
2015-04-15 08:05:26,0.07,2.44,0.00,25.12,27.23,30.13,4.79,26.21,1023.27,2032.12,2521.22,2665.09,2887.56,349.74,347.26,14.02,0000 0000 0000 0000 000000
2015-04-15 08:10:28,0.12,2.45,0.00,25.53,27.31,30.21,4.84,26.42,1023.21,2032.00,2520.08,2664.13,2886.52,350.21,347.18,14.05,0000 0000 0000 0000 000000
2015-04-15 08:15:29,0.14,2.45,0.00,25.18,27.39,30.44,4.77,26.39,1023.37,2031.98,2518.87,2663.15,2885.39,350.19,347.59,14.08,0000 0000 0000 0000 000000
2015-04-15 08:20:30,0.04,2.45,0.00,24.56,27.46,30.68,4.80,26.57,1023.42,2031.58,2517.65,2662.26,2884.38,350.29,348.35,14.11,0000 0000 0000 0000 000000
2015-04-15 08:25:32,0.07,2.45,0.00,24.21,27.51,30.80,4.74,26.53,1023.41,2031.07,2516.45,2661.42,2883.42,349.63,348.16,14.14,0000 0000 0000 0000 000000
2015-04-15 08:30:33,0.06,2.46,0.00,24.37,27.54,30.75,4.77,26.57,1023.44,2031.01,2515.55,2660.91,2882.73,349.88,348.25,14.16,0000 0000 0000 0000 000000
2015-04-15 08:35:34,0.10,2.46,0.00,24.56,27.57,30.65,4.76,26.57,1023.45,2031.00,2514.64,2660.08,2881.98,349.88,347.95,14.19,0000 0000 0000 0000 000000
2015-04-15 08:40:36,0.11,2.46,0.00,24.41,27.59,30.53,4.84,26.43,1023.45,2031.00,2513.79,2659.53,2881.15,350.28,348.66,14.22,0000 0000 0000 0000 000000
2015-04-15 08:45:37,0.07,2.47,0.00,24.44,27.61,30.50,4.77,26.43,1023.45,2030.97,2512.88,2658.85,2880.36,350.71,349.02,14.25,0000 0000 0000 0000 000000
2015-04-15 08:50:39,0.11,2.47,0.00,24.71,27.63,30.44,4.70,26.41,1023.45,2030.91,2511.90,2658.02,2879.54,349.98,348.15,14.28,0000 0000 0000 0000 000000
2015-04-15 08:55:40,0.05,2.47,0.00,25.21,27.66,30.26,4.78,26.49,1023.48,2030.63,2510.89,2657.25,2878.85,349.78,347.00,14.31,0000 0000 0000 0000 000000
2015-04-15 09:00:41,0.02,2.47,0.00,25.49,27.70,30.34,4.74,26.57,1023.55,2030.10,2509.92,2656.51,2878.00,349.55,346.72,14.34,0000 0000 0000 0000 000000
2015-04-15 09:05:43,0.11,2.47,0.00,24.92,27.73,30.58,4.80,26.53,1023.57,2030.01,2508.81,2655.79,2877.10,349.90,347.66,14.37,0000 0000 0000 0000 000000
2015-04-15 09:10:44,0.11,2.48,0.00,24.43,27.75,30.71,4.78,26.63,1023.62,2030.00,2507.78,2655.03,2876.28,349.69,348.16,14.40,0000 0000 0000 0000 000000
2015-04-15 09:15:46,0.12,2.48,0.00,24.10,27.76,30.58,4.76,26.49,1023.61,2030.00,2506.71,2654.32,2875.60,349.83,348.44,14.43,0000 0000 0000 0000 000000
2015-04-15 09:20:47,0.04,2.48,0.00,24.28,27.75,30.23,4.76,26.66,1023.55,2030.00,2505.91,2653.90,2875.00,349.80,348.38,14.46,0000 0000 0000 0000 000000
2015-04-15 09:25:48,0.11,2.49,0.00,24.57,27.74,30.15,4.73,26.52,1023.49,2030.00,2505.05,2653.15,2874.30,349.56,347.88,14.49,0000 0000 0000 0000 000000
2015-04-15 09:30:50,0.06,2.49,0.00,24.38,27.72,30.23,4.78,26.68,1023.50,2030.00,2504.26,2652.84,2873.82,350.28,348.70,14.52,0000 0000 0000 0000 000000
2015-04-15 09:35:51,0.11,2.49,0.00,24.70,27.71,30.29,4.84,26.70,1023.52,2030.00,2503.27,2652.05,2873.03,350.75,348.99,14.55,0000 0000 0000 0000 000000
2015-04-15 09:40:52,0.11,2.49,0.00,25.11,27.71,30.34,4.78,26.54,1023.65,2030.00,2502.53,2651.52,2872.26,350.35,347.99,14.57,0000 0000 0000 0000 000000
2015-04-15 09:45:53,0.06,2.50,0.00,25.64,27.72,30.25,4.71,26.56,1023.70,2029.99,2501.75,2650.95,2871.72,349.96,346.91,14.60,0000 0000 0000 0000 000000
2015-04-15 09:50:54,0.12,2.50,0.00,25.38,27.73,30.28,4.73,26.63,1023.75,2029.98,2500.71,2650.13,2870.88,350.28,347.56,14.63,0000 0000 0000 0000 000000
2015-04-15 09:55:55,0.11,2.50,0.00,24.72,27.75,30.58,4.74,26.54,1023.87,2029.99,2499.74,2649.54,2870.06,349.41,347.55,14.66,0000 0000 0000 0000 000000
2015-04-15 10:00:57,0.09,2.51,0.00,24.31,27.75,30.65,4.76,26.67,1023.92,2029.96,2498.72,2649.00,2869.35,349.84,348.67,14.69,0000 0000 0000 0000 000000
2015-04-15 10:05:58,0.07,2.51,0.00,24.04,27.74,30.40,4.69,26.58,1023.89,2029.95,2497.92,2648.40,2868.98,349.34,348.31,14.72,0000 0000 0000 0000 000000
2015-04-15 10:10:59,0.08,2.51,0.00,23.88,27.71,30.09,4.74,26.57,1023.82,2029.99,2497.07,2648.01,2868.35,349.57,348.61,14.75,0000 0000 0000 0000 000000
2015-04-15 10:16:01,0.05,2.51,0.00,24.25,27.68,29.86,4.76,26.54,1023.82,2029.99,2496.34,2647.92,2868.00,350.24,348.88,14.78,0000 0000 0000 0000 000000
2015-04-15 10:21:02,0.09,2.51,0.00,24.38,27.64,29.93,4.84,26.57,1023.91,2030.00,2495.88,2647.17,2867.53,349.92,348.42,14.81,0000 0000 0000 0000 000000
2015-04-15 10:26:03,0.04,2.52,0.00,24.41,27.61,30.03,4.77,26.70,1023.93,2030.01,2495.08,2646.99,2867.01,350.36,348.92,14.84,0000 0000 0000 0000 000000
2015-04-15 10:31:04,0.11,2.52,0.00,24.43,27.60,30.05,4.78,26.72,1023.94,2030.02,2494.53,2646.28,2866.35,350.04,348.55,14.87,0000 0000 0000 0000 000000
2015-04-15 10:36:05,0.05,2.52,0.00,24.82,27.58,30.13,4.72,26.88,1023.94,2030.00,2493.72,2645.91,2865.84,349.58,347.65,14.90,0000 0000 0000 0000 000000
2015-04-15 10:41:07,0.09,2.53,0.00,25.30,27.59,30.12,4.77,26.63,1023.95,2030.01,2492.94,2645.12,2865.06,350.46,347.80,14.93,0000 0000 0000 0000 000000
2015-04-15 10:46:08,0.11,2.53,0.00,24.90,27.60,30.20,4.69,26.73,1023.95,2030.00,2492.01,2644.64,2864.40,349.35,347.40,14.96,0000 0000 0000 0000 000000
2015-04-15 10:51:09,0.06,2.53,0.00,24.38,27.60,30.44,4.75,26.62,1023.97,2030.00,2491.09,2644.01,2863.96,349.86,348.43,14.98,0000 0000 0000 0000 000000
2015-04-15 10:56:11,0.12,2.53,0.00,24.12,27.59,30.46,4.79,26.68,1023.96,2030.00,2490.08,2643.38,2863.13,349.72,348.64,15.01,0000 0000 0000 0000 000000
2015-04-15 11:01:12,0.10,2.54,0.00,24.05,27.57,30.23,4.77,26.61,1023.95,2030.05,2488.94,2642.87,2862.48,349.80,348.80,15.04,0000 0000 0000 0000 000000
2015-04-15 11:06:13,0.16,2.54,0.00,24.53,27.55,30.00,4.80,26.63,1023.96,2030.19,2487.72,2642.04,2861.59,350.52,348.96,15.07,0000 0000 0000 0000 000000
2015-04-15 11:11:14,0.13,2.54,0.00,24.42,27.52,30.06,4.78,26.73,1023.95,2030.41,2486.81,2641.52,2861.00,350.36,348.83,15.10,0000 0000 0000 0000 000000
2015-04-15 11:16:15,0.16,2.55,0.00,24.62,27.50,30.00,4.82,26.80,1023.96,2030.85,2485.91,2641.00,2860.29,350.89,348.94,15.13,0000 0000 0000 0000 000000
2015-04-15 11:21:16,0.10,2.55,0.00,24.57,27.50,30.05,4.79,26.62,1024.01,2030.85,2484.94,2640.29,2859.63,349.79,348.41,15.16,0000 0000 0000 0000 000000
2015-04-15 11:26:17,0.08,2.56,0.00,24.71,27.50,30.13,4.82,26.74,1024.03,2030.79,2483.97,2639.75,2858.90,350.24,348.32,15.19,0000 0000 0000 0000 000000
2015-04-15 11:31:18,0.05,2.56,0.00,25.25,27.50,30.06,4.80,26.77,1024.16,2030.54,2482.91,2639.00,2858.05,350.36,348.08,15.22,0000 0000 0000 0000 000000
2015-04-15 11:36:20,0.07,2.56,0.00,25.42,27.52,30.06,4.78,26.73,1024.35,2030.16,2481.96,2638.14,2857.16,349.86,347.43,15.25,0000 0000 0000 0000 000000
2015-04-15 11:41:21,0.10,2.56,0.00,24.78,27.55,30.31,4.77,26.61,1024.41,2030.09,2481.02,2637.63,2856.52,349.89,348.19,15.28,0000 0000 0000 0000 000000
2015-04-15 11:46:22,0.06,2.56,0.00,24.27,27.57,30.54,4.77,26.63,1024.41,2030.04,2480.06,2637.01,2855.96,349.94,348.81,15.31,0000 0000 0000 0000 000000
2015-04-15 11:51:23,0.11,2.57,0.00,24.00,27.57,30.43,4.80,26.62,1024.42,2030.06,2479.17,2636.61,2855.16,350.08,349.23,15.34,0000 0000 0000 0000 000000
2015-04-15 11:56:24,0.07,2.57,0.00,24.15,27.55,30.12,4.73,26.68,1024.43,2030.14,2478.42,2636.03,2854.98,349.46,348.47,15.37,0000 0000 0000 0000 000000
2015-04-15 12:01:26,0.11,2.57,0.00,24.42,27.54,30.04,4.85,26.66,1024.43,2030.44,2477.90,2635.92,2854.33,350.71,349.12,15.39,0000 0000 0000 0000 000000
2015-04-15 12:06:27,0.09,2.58,0.00,24.45,27.52,30.05,4.77,26.68,1024.43,2030.57,2477.10,2635.21,2853.96,349.96,348.72,15.42,0000 0000 0000 0000 000000
2015-04-15 12:11:29,0.07,2.58,0.00,24.68,27.52,30.14,4.73,26.68,1024.43,2030.52,2476.35,2634.91,2853.14,349.70,348.12,15.45,0000 0000 0000 0000 000000
2015-04-15 12:16:30,0.07,2.58,0.00,24.70,27.51,30.15,4.76,26.71,1024.43,2030.32,2475.48,2634.10,2852.52,349.79,348.07,15.48,0000 0000 0000 0000 000000
2015-04-15 12:21:31,0.09,2.58,0.00,24.74,27.52,30.21,4.84,26.82,1024.44,2030.21,2474.56,2633.52,2851.84,349.82,348.29,15.51,0000 0000 0000 0000 000000
2015-04-15 12:26:32,0.06,2.58,0.00,25.07,27.53,30.21,4.77,26.73,1024.45,2030.11,2473.56,2632.94,2851.04,350.14,348.20,15.54,0000 0000 0000 0000 000000
2015-04-15 12:31:34,0.12,2.59,0.00,25.52,27.56,30.13,4.71,26.73,1024.48,2030.06,2472.57,2632.08,2850.23,349.64,347.05,15.57,0000 0000 0000 0000 000000
2015-04-15 12:36:35,0.13,2.59,0.00,24.99,27.58,30.32,4.84,26.77,1024.51,2030.01,2471.31,2631.16,2849.21,350.48,348.54,15.60,0000 0000 0000 0000 000000
2015-04-15 12:41:36,0.12,2.60,0.00,24.37,27.60,30.59,4.79,26.68,1024.51,2030.00,2470.11,2630.49,2848.39,350.16,349.19,15.63,0000 0000 0000 0000 000000
2015-04-15 12:46:37,0.11,2.60,0.00,24.01,27.62,30.55,4.80,26.52,1024.47,2030.00,2468.88,2629.79,2847.56,350.11,349.32,15.66,0000 0000 0000 0000 000000
2015-04-15 12:51:39,0.11,2.60,0.00,23.79,27.61,30.30,4.79,26.69,1024.46,2030.00,2467.70,2629.04,2846.83,349.65,349.25,15.69,0000 0000 0000 0000 000000
2015-04-15 12:56:40,0.08,2.61,0.00,24.11,27.59,29.99,4.74,26.55,1024.44,2030.00,2466.89,2628.58,2846.07,350.01,349.07,15.72,0000 0000 0000 0000 000000
2015-04-15 13:01:41,0.07,2.61,0.00,24.21,27.57,29.93,4.80,26.48,1024.43,2030.03,2466.06,2628.01,2845.71,349.99,348.68,15.75,0000 0000 0000 0000 000000